Location: Arboyeti
(42.1122°N, 44.6017°E)
Time: 05:42:52
(UTC+00:00)

Meteor 2-1 Rocket - Pass Details

Date: 19 April 2021
Orbit: 828 x 909 km, 81.3° (Epoch: 09 May)

Event Time Altitude Azimuth Distance (km) Brightness Sun altitude
Rises 16:46:41 0° 175° (S) 3,460 7.1 -11.1°
Reaches altitude 10° 16:49:08 10° 171° (S) 2,537 6.3 -11.5°
Maximum altitude 16:54:46 56° 94° (E) 1,061 4.4 -12.4°
Drops below altitude 10° 17:00:32 10° 18° (NNE) 2,594 6.9 -13.3°
Sets 17:03:03 0° 15° (NNE) 3,545 7.6 -13.7°
